Wind_Speed
23 22 22 21 20 18 16 15 14 14 14 15 16 16 17 18 19 21 22 23 24 24 25 26 27 28 29 29 30 30 30 29 29 28 28 27 28 28 29 30 32 33 34 36 37 39 40 41 42 42 42 41 39 37 35 34 32 31 30 30 29 29 29 29 28 28 28 28 28 28 29 29 29 29 30 30 30 31 31 31 32 32 33 33 34 34
21 21 20 19 17 15 14 14 14 14 15 16 16 17 18 18 19 20 21 22 23 24 25 27 28 28 29 29 29 29 28 27 27 27 27 27 28 29 30 32 33 35 36 38 39 40 41 42 42 41 40 38 36 34 33 31 30 30 29 29 29 28 28 28 28 28 28 28 28 29 29 29 29 30 30 30 31 31 32 32 33 33 34 34 34 35
19 18 17 16 14 14 14 14 14 14 15 16 16 17 17 17 18 19 20 22 23 25 26 27 28 28 28 28 27 27 26 26 26 26 27 28 29 30 32 34 35 37 38 39 40 41 42 41 41 39 37 35 33 32 31 30 29 29 29 28 28 28 28 28 28 28 28 28 28 29 29 30 30 30 31 31 31 32 32 33 34 34 35 35 35 36
16 15 14 14 13 13 14 14 14 14 15 15 16 16 16 16 17 19 21 23 24 26 27 27 27 27 26 26 25 25 25 25 26 27 28 29 31 32 34 35 37 38 39 40 41 41 41 40 39 37 35 33 31 30 29 29 28 28 28 28 28 28 28 28 28 28 28 28 29 29 29 30 30 31 31 32 32 33 33 34 34 35 36 36 36 37
14 13 13 13 12 13 13 13 13 14 14 15 15 15 15 16 18 20 22 24 25 26 26 26 25 25 24 24 24 24 25 25 26 28 29 31 32 34 36 37 38 39 40 41 41 40 39 38 36 34 32 31 29 29 28 28 28 28 28 28 28 28 28 28 28 28 28 28 29 29 30 30 31 32 32 33 33 34 34 35 35 36 36 37 37 37
12 12 12 12 12 12 12 12 13 13 14 14 14 15 16 17 19 21 23 24 25 25 24 24 23 23 23 23 23 24 25 27 28 29 31 32 34 36 37 38 39 40 41 40 40 39 37 35 33 31 30 29 28 28 28 28 28 28 28 28 28 28 28 28 28 28 29 29 30 30 31 31 32 32 33 34 34 34 35 36 36 37 37 37 37 38
11 11 11 10 11 11 11 11 12 13 14 14 15 16 17 19 21 22 24 24 24 23 23 22 22 22 22 23 24 25 27 28 30 31 33 34 35 37 38 39 40 40 40 39 38 36 34 33 31 29 28 28 28 27 28 28 28 28 28 28 29 29 29 29 29 29 30 30 30 31 32 32 33 33 34 34 35 35 36 36 37 37 37 38 38 38
9 9 9 9 9 10 10 11 12 13 14 15 16 17 18 20 21 22 23 23 22 21 21 21 21 21 22 23 25 27 28 30 31 33 34 35 36 37 38 39 40 39 39 37 36 34 32 30 29 28 27 27 27 27 27 27 28 28 28 29 29 29 29 30 30 30 31 31 32 32 32 33 33 34 35 35 36 36 37 37 37 38 38 38 38 39
7 7 7 8 8 10 11 12 13 13 14 15 17 18 19 20 21 21 21 20 20 20 20 20 21 23 24 25 26 28 30 31 33 34 35 36 37 37 38 39 38 38 37 35 33 31 30 28 27 27 26 26 26 26 27 27 27 28 28 29 29 29 30 30 31 31 31 32 32 33 33 34 34 35 35 36 36 37 37 37 38 38 38 39 39 39
5 6 7 8 10 11 12 13 13 14 15 16 17 18 19 19 19 19 18 18 18 19 20 21 22 24 25 27 28 30 31 32 34 35 36 36 37 37 37 37 36 35 34 32 31 29 28 27 26 26 26 26 26 26 26 27 27 28 28 29 29 29 30 30 31 31 32 32 33 33 34 34 35 35 36 36 36 37 37 38 38 39 39 40 40 40
5 7 8 10 11 12 13 13 14 15 16 16 17 17 18 18 17 17 17 18 19 19 21 22 23 25 26 28 29 31 32 33 35 36 37 38 37 37 36 35 34 33 31 30 28 27 27 26 26 26 26 26 26 26 27 27 27 28 28 29 29 29 30 30 31 31 32 32 33 33 34 34 35 35 36 36 36 37 37 38 39 39 40 40 41 41
7 8 10 11 12 13 13 14 15 15 15 16 16 16 16 16 16 16 17 18 19 21 22 23 25 26 27 28 29 31 32 33 35 37 38 38 37 36 34 33 32 31 29 28 27 27 27 27 27 27 27 27 27 27 27 27 28 28 28 29 29 30 30 30 31 31 32 32 33 33 34 34 34 35 35 35 36 36 37 38 39 40 41 41 42 42
9 10 11 12 13 14 14 14 14 14 15 15 15 15 15 15 16 17 18 19 20 21 23 24 26 27 28 29 30 31 32 33 35 37 38 38 37 34 32 30 29 29 28 28 28 28 28 28 28 29 29 29 28 28 28 29 29 29 29 29 30 30 30 30 31 31 32 32 32 33 33 33 34 34 34 35 36 36 37 38 39 40 41 42 42 42
10 11 12 13 14 14 14 14 14 14 14 14 14 14 15 15 16 17 18 20 21 22 24 25 27 28 30 30 31 32 32 33 34 35 36 36 35 32 30 28 27 27 28 28 28 29 29 30 30 30 30 30 30 30 30 30 30 30 30 30 30 30 30 31 31 31 31 32 32 32 32 33 33 33 34 35 35 36 38 39 40 41 42 43 43 43
10 12 12 13 13 13 13 13 13 13 13 13 13 14 15 16 17 18 19 21 22 24 25 26 28 29 31 31 32 33 33 33 33 33 33 34 33 31 28 27 26 27 27 28 29 29 30 31 31 32 32 32 31 31 31 31 31 31 31 31 31 31 31 31 31 31 31 31 31 32 32 32 33 33 34 35 36 37 38 40 41 42 43 43 43 43
10 10 11 11 11 11 12 12 12 12 12 13 13 14 15 17 18 19 20 22 23 24 25 26 27 29 31 32 33 33 33 32 32 31 30 31 30 29 27 26 26 27 27 28 29 30 30 31 32 32 32 32 32 32 32 32 32 31 31 31 31 31 31 31 31 31 31 31 31 32 32 32 33 34 35 36 37 38 40 41 42 43 44 44 44 44
8 9 9 9 10 10 10 11 11 11 12 13 14 15 16 18 19 20 21 23 24 25 26 27 28 29 30 32 33 33 33 31 30 28 27 28 28 28 27 26 26 26 27 28 29 30 30 31 32 32 33 33 33 32 32 32 32 32 32 32 32 32 32 32 32 32 32 32 32 32 33 33 34 35 36 38 39 40 41 42 43 44 45 45 44 44
7 8 8 8 8 9 9 10 10 11 12 14 15 16 17 19 20 21 23 24 25 26 28 29 30 31 31 32 33 33 32 30 28 26 25 26 26 27 26 26 25 25 26 27 28 29 30 31 32 32 33 33 33 33 33 33 33 33 33 33 33 33 33 33 33 33 33 34 34 34 35 35 36 37 38 40 41 42 43 44 45 45 45 45 45 44
7 7 7 7 8 8 9 10 11 12 13 15 16 17 19 20 21 23 24 25 26 28 29 30 32 32 33 32 33 33 31 29 27 25 24 24 25 26 26 25 24 24 24 25 27 28 29 30 31 32 33 33 34 34 34 34 34 34 34 34 34 35 35 35 35 35 35 35 36 36 37 37 38 39 40 41 43 44 45 45 46 46 46 46 45 44
7 7 7 7 8 8 9 10 12 13 14 16 17 19 20 21 23 24 25 26 27 29 30 31 32 33 33 33 32 31 30 29 27 25 24 24 24 25 25 24 23 23 23 23 25 26 28 29 30 32 33 33 34 34 35 35 35 35 35 35 35 35 36 36 36 36 36 36 37 37 38 39 40 41 42 43 44 45 46 47 47 47 47 46 45 44
6 6 7 7 8 9 10 11 13 14 15 17 18 19 21 22 23 24 26 27 28 29 31 31 32 33 33 32 32 31 29 28 27 26 25 24 24 24 25 24 23 22 21 22 23 24 26 27 29 31 32 32 33 34 34 35 35 36 36 36 36 36 36 36 36 36 37 37 38 39 40 41 42 43 44 45 46 47 47 48 48 48 47 46 45 44
6 6 7 8 9 10 11 12 14 15 16 18 19 20 21 22 24 25 26 27 28 29 30 31 32 32 32 32 31 31 29 28 28 27 25 24 23 23 24 24 23 22 21 21 22 23 24 25 27 29 30 31 32 33 34 35 35 35 35 35 36 36 36 36 37 37 38 39 40 41 42 43 44 45 46 47 48 48 48 48 48 48 47 46 45 43
6 7 8 9 10 11 12 13 15 16 17 19 20 21 22 23 24 25 27 28 28 29 30 30 31 31 31 32 32 31 30 29 28 27 26 24 23 23 24 24 23 22 21 21 21 22 22 23 25 27 28 29 31 32 33 34 35 35 35 36 36 36 37 37 38 39 40 41 42 44 45 46 47 47 48 48 49 49 49 48 48 47 46 45 44 43
6 7 8 9 11 12 13 15 16 17 18 20 21 22 23 25 26 27 28 28 29 30 30 30 30 30 31 31 31 31 29 28 27 26 26 24 24 23 24 25 24 23 21 21 21 21 22 22 23 25 26 28 29 30 32 33 34 35 36 36 37 38 39 40 41 42 43 44 45 46 47 48 49 49 49 49 49 49 48 48 47 46 45 44 42 41
7 8 9 11 12 13 15 16 17 18 20 21 22 24 25 26 27 28 29 30 31 31 31 31 30 30 30 30 30 30 29 27 26 26 25 25 24 24 24 25 25 24 22 22 21 22 22 22 22 23 25 26 28 29 31 33 34 36 37 38 39 40 42 43 44 45 46 47 48 49 49 49 49 49 49 49 48 48 47 46 45 44 42 41 40 39
8 10 11 12 13 14 16 17 18 19 21 22 23 25 26 27 29 30 31 32 32 32 32 31 30 29 28 28 28 28 28 27 26 26 25 25 24 24 25 26 26 26 25 23 22 22 22 22 22 23 24 25 27 29 31 33 35 37 39 41 42 43 45 46 47 48 49 49 50 50 50 49 49 48 48 47 46 45 44 43 41 40 39 38 37 37
10 11 12 13 14 15 17 18 19 21 22 24 25 26 27 28 29 30 31 32 33 33 32 31 30 29 27 26 27 27 27 27 26 26 25 25 25 25 26 27 27 28 27 25 24 23 23 23 24 24 25 26 28 30 32 35 37 39 41 43 44 46 47 48 49 49 49 50 49 49 48 47 46 45 45 44 43 41 40 39 38 36 35 35 34 34
11 12 13 14 15 17 18 19 21 22 24 25 26 27 28 29 30 31 32 33 33 33 32 32 31 29 27 26 26 26 27 27 26 26 26 26 26 27 27 28 29 29 29 28 26 25 25 25 26 27 28 29 31 33 35 37 39 41 43 44 45 47 47 48 48 48 47 47 46 44 43 42 41 41 40 39 38 37 36 35 34 33 33 32 32 31
12 13 14 15 16 18 19 21 22 24 25 26 27 28 29 30 31 32 33 33 33 32 32 31 30 29 28 26 25 25 26 26 27 26 26 27 27 28 28 29 30 31 31 31 29 27 26 27 28 29 31 32 34 36 38 39 41 42 43 43 44 44 44 44 44 43 41 40 39 37 36 36 35 35 35 34 34 34 33 32 32 31 31 30 30 29
13 14 15 16 18 20 21 23 24 25 26 27 28 29 31 32 32 33 33 33 33 32 32 31 30 29 28 27 26 26 27 27 27 28 28 28 29 29 29 30 31 32 33 34 33 31 30 29 30 32 34 36 37 39 40 40 41 41 40 40 40 40 39 38 37 35 33 32 31 30 30 30 30 30 31 31 31 31 30 30 30 29 29 29 28 27
14 15 16 18 20 21 23 24 25 27 28 29 30 31 32 33 33 34 34 33 33 32 32 31 30 30 29 29 29 29 29 29 29 29 30 30 30 30 31 32 33 33 35 36 37 37 36 34 34 35 37 38 39 40 40 39 39 38 37 36 36 34 33 31 29 28 26 25 25 25 25 26 26 27 27 28 28 28 28 28 28 28 28 27 27 25
15 16 18 20 22 23 25 26 27 29 30 31 32 33 34 34 34 34 34 34 33 32 32 31 31 30 30 30 31 31 31 31 31 31 31 32 32 32 33 33 34 35 36 37 38 40 41 40 40 39 40 40 41 40 39 38 36 35 34 33 32 30 28 26 25 23 22 21 21 22 22 23 24 24 25 25 26 26 26 26 26 26 26 26 25 23
17 18 20 22 24 26 27 28 29 30 32 33 33 34 35 35 35 35 34 34 33 33 32 32 31 31 30 30 31 31 31 32 32 33 33 33 33 34 34 35 36 37 37 38 40 41 43 44 44 44 43 42 41 40 38 36 35 33 32 31 30 28 26 24 23 21 21 20 20 21 21 21 22 22 23 23 24 24 24 24 24 25 25 25 24 23
19 21 23 25 26 28 29 29 30 31 32 33 34 34 35 35 35 35 35 34 34 33 33 32 32 31 31 31 31 31 31 32 33 34 34 34 35 35 36 36 37 38 39 40 42 43 44 45 46 46 46 43 41 38 36 35 34 33 32 31 30 28 26 25 23 22 21 21 21 21 21 20 21 21 21 22 22 22 22 23 23 24 24 24 24 23
22 24 25 26 27 28 28 29 30 31 32 32 33 34 34 34 35 35 34 34 33 33 32 32 31 31 31 31 31 31 31 32 33 34 35 36 36 36 37 38 39 40 41 43 44 45 46 47 48 48 47 44 40 37 35 34 33 33 32 32 31 29 28 27 26 25 24 23 22 21 21 20 20 20 20 20 21 21 21 22 22 23 23 23 24 24
24 25 26 26 26 27 28 28 29 30 31 32 32 33 33 33 33 33 33 33 32 32 31 31 31 31 31 31 31 31 32 32 33 34 35 36 37 37 38 39 40 41 43 44 46 47 48 49 49 48 46 43 39 36 34 33 33 33 33 32 32 31 30 29 28 27 26 25 24 22 21 21 20 20 20 20 20 20 21 21 21 22 22 22 23 23
24 25 25 26 26 27 28 29 30 30 31 32 32 32 33 33 32 32 32 31 30 30 30 30 30 30 31 31 31 32 32 33 34 35 36 37 37 38 39 40 41 42 44 46 48 49 50 50 50 48 45 41 38 36 35 34 34 33 33 33 32 32 31 31 30 29 28 26 25 23 22 21 20 20 19 19 20 20 20 20 20 20 20 21 21 22
24 25 25 26 27 28 29 30 31 32 32 32 32 32 32 32 32 31 30 29 29 29 28 29 29 30 31 31 32 33 33 34 35 35 36 37 38 39 40 41 42 43 45 47 49 50 51 50 49 46 43 39 37 36 36 36 35 35 34 33 33 32 32 31 30 29 28 27 25 23 22 21 20 19 19 19 19 19 19 19 19 19 19 20 20 21
25 26 27 28 29 30 31 32 33 33 33 33 33 32 32 31 31 30 29 28 28 27 27 28 28 29 30 31 32 33 34 35 35 36 37 38 39 40 41 42 43 45 46 48 49 50 50 49 46 43 40 37 36 35 36 36 37 36 35 34 33 32 31 30 30 28 27 26 25 23 21 20 19 19 18 19 19 19 18 18 18 18 18 18 18 19
26 27 29 30 31 32 33 34 34 34 34 34 33 32 31 30 29 28 27 27 27 27 27 27 28 29 30 31 32 33 34 35 36 36 37 38 39 40 42 43 44 46 47 48 48 48 47 45 42 40 38 36 36 36 37 37 38 38 37 35 34 32 31 30 29 28 27 26 24 22 20 19 18 17 17 18 18 18 18 17 17 17 17 17 16 16
27 29 30 31 32 33 34 34 34 34 34 34 33 31 30 29 28 27 26 26 26 26 26 26 27 28 29 30 31 32 34 34 35 36 37 38 40 41 43 44 45 46 46 46 46 45 43 40 38 36 36 36 36 37 37 38 38 38 37 36 34 33 31 29 28 27 26 25 23 21 19 17 16 15 15 16 16 16 16 16 16 16 16 16 16 15
28 29 31 32 32 33 34 34 34 34 34 33 32 31 29 28 27 26 25 25 25 25 26 26 27 27 28 29 30 31 32 34 35 36 38 39 40 42 43 44 45 45 44 43 42 40 38 36 35 35 35 36 37 38 38 38 38 38 37 36 34 32 30 28 27 26 25 24 22 20 18 16 14 14 14 14 14 14 15 15 15 15 15 15 15 15
29 30 31 32 32 33 34 34 34 34 33 32 31 30 29 28 27 26 26 26 26 26 27 27 28 28 28 28 29 30 31 33 35 36 38 40 41 42 43 43 43 42 41 39 37 35 34 33 33 34 36 37 38 38 38 38 37 37 36 35 34 32 30 28 26 25 24 22 21 19 17 15 14 14 14 14 14 14 14 14 14 14 14 14 14 15
30 31 31 32 33 33 33 33 33 33 32 31 30 29 28 27 27 27 27 27 28 28 29 29 29 30 29 30 30 31 32 34 36 37 39 41 42 42 42 41 40 38 36 34 33 32 32 32 33 35 36 37 38 38 38 37 37 36 35 34 33 31 30 29 27 25 23 21 20 19 18 16 14 14 14 15 15 15 15 14 14 14 13 14 14 14
30 31 31 32 33 33 33 33 32 32 31 29 28 28 27 27 27 28 28 28 29 30 30 31 31 32 32 32 33 33 34 36 37 38 40 40 40 40 39 37 35 33 32 31 31 31 32 33 34 35 36 37 37 37 37 36 35 35 34 32 31 29 28 27 26 25 23 21 20 19 18 17 16 15 16 17 17 17 17 16 15 14 13 13 13 13
30 31 32 32 33 33 32 32 31 30 29 28 28 27 27 27 28 28 29 29 30 31 31 32 33 34 35 36 36 37 37 38 39 39 39 39 38 37 35 33 32 30 30 29 30 31 32 34 35 35 36 35 35 35 35 35 34 34 33 31 30 28 27 26 25 24 23 21 20 20 20 20 19 19 19 20 20 20 19 18 17 15 13 12 12 12
31 32 32 33 33 32 32 31 30 29 28 27 27 27 27 28 28 29 29 30 31 32 32 33 34 36 37 38 39 40 41 41 40 40 39 37 36 34 33 31 30 30 30 30 30 31 33 34 35 35 35 34 34 33 33 33 33 33 32 31 29 28 27 26 25 24 23 22 22 22 22 23 23 23 23 23 23 22 21 20 18 16 14 12 11 11
32 32 33 33 33 32 31 30 29 28 27 27 27 28 28 29 29 30 30 31 32 33 34 35 36 37 39 40 41 42 42 42 41 40 39 37 36 34 33 32 31 31 31 31 31 31 32 33 33 34 33 33 33 33 33 32 32 32 31 30 29 28 27 26 25 24 24 24 24 25 26 27 28 27 26 26 25 24 23 21 19 16 14 12 11 10
33 33 34 33 33 32 30 29 28 27 27 27 27 28 29 30 30 31 32 32 33 34 36 37 38 39 40 41 42 42 42 42 41 40 39 38 37 35 34 34 33 32 32 32 31 31 30 31 31 31 32 32 32 32 32 32 31 30 30 29 28 28 27 26 25 25 25 25 26 28 29 31 31 30 28 27 27 26 24 22 19 17 14 12 11 10
33 34 34 33 33 32 30 29 28 28 28 28 28 29 29 30 31 32 33 34 35 36 38 39 40 41 42 42 42 42 42 41 40 39 39 38 38 37 36 36 35 35 34 34 33 32 31 29 28 29 29 30 30 31 31 31 30 29 29 28 28 28 28 27 27 27 27 28 29 30 32 33 32 31 29 28 27 25 24 22 20 17 15 13 12 10
34 34 34 33 32 31 30 29 29 28 28 29 29 30 30 31 32 33 34 35 36 38 39 40 41 42 42 43 42 42 41 40 40 39 39 39 39 38 38 39 39 38 38 37 36 35 33 31 28 27 27 27 28 29 29 29 29 29 28 28 28 28 29 29 29 29 29 30 31 32 33 34 33 31 29 27 26 25 24 22 21 19 17 15 13 11
Wind_Direction
241 245 248 250 250 248 245 243 242 243 248 253 260 266 272 278 282 285 287 287 288 288 288 289 290 292 294 295 296 297 297 297 298 298 299 299 299 299 299 298 298 298 298 298 299 299 300 301 302 303 303 303 303 302 301 300 300 299 298 298 297 297 297 297 297 297 298 298 299 300 300 300 301 301 301 301 302 302 302 302 302 302 302 302 302 302
248 249 249 248 244 239 236 237 240 245 252 258 265 271 276 280 283 285 286 287 288 289 290 291 293 295 296 297 297 297 298 298 299 299 300 300 299 299 299 298 298 298 299 300 301 302 303 304 304 305 304 304 303 302 301 300 299 299 298 298 297 297 297 298 298 299 300 300 301 301 301 302 302 302 302 302 302 303 303 303 303 302 302 302 302 301
250 247 243 239 235 231 233 237 243 250 257 264 269 273 277 280 284 286 288 289 290 291 293 294 295 296 297 297 298 298 299 299 300 300 300 300 299 299 299 299 300 300 301 302 303 304 305 305 306 305 305 304 303 302 300 300 299 299 298 298 298 298 298 299 299 300 301 301 302 302 302 302 302 302 302 303 303 303 303 303 303 303 302 302 302 302
243 238 233 230 229 231 236 243 251 257 263 267 270 273 277 283 288 291 292 293 294 294 295 296 297 297 298 298 298 299 300 300 300 300 300 300 300 300 300 301 302 303 304 305 306 306 307 306 306 305 304 303 302 301 300 300 299 299 299 299 299 299 299 300 300 301 302 302 302 303 303 303 303 303 303 303 303 303 303 303 303 303 302 302 302 302
233 230 228 229 232 238 245 252 258 262 265 268 272 278 284 291 295 296 296 296 296 296 296 297 297 297 298 298 299 300 300 300 301 301 301 301 302 302 303 304 305 306 307 307 308 307 307 306 305 305 304 303 302 301 300 300 300 300 300 300 300 300 301 301 302 302 302 303 303 303 303 303 303 303 303 304 304 304 304 303 303 303 302 302 302 302
227 227 230 235 240 247 252 258 262 266 269 274 281 289 296 300 301 300 299 298 297 297 297 297 297 298 299 300 300 301 301 302 302 302 303 304 304 305 306 307 307 308 308 308 308 308 307 306 305 304 303 302 301 301 301 301 301 302 302 302 302 302 303 303 303 303 304 304 304 304 303 304 303 304 304 304 304 304 303 303 303 303 302 302 302 301
224 228 235 241 247 252 258 263 268 273 278 286 295 302 305 305 303 300 298 297 296 296 297 298 299 299 301 301 302 303 303 304 304 305 306 306 307 308 308 309 309 309 309 308 308 307 306 305 304 303 302 302 302 302 303 303 304 304 304 304 304 304 304 305 305 305 305 304 304 304 304 304 304 304 304 304 304 304 304 303 303 303 303 302 302 301
225 231 239 247 253 259 265 271 276 283 291 299 306 309 307 304 301 298 297 296 296 297 299 300 302 302 303 304 304 305 305 306 307 307 308 308 309 310 310 310 310 309 309 308 307 306 305 304 303 303 302 303 303 304 305 306 306 306 306 306 306 306 306 306 306 305 305 305 305 305 305 305 305 305 305 304 304 304 304 304 304 304 303 303 302 302
229 238 248 257 265 270 275 280 287 295 303 308 309 308 304 300 297 296 295 296 298 300 302 304 305 305 306 306 307 307 308 308 309 309 309 309 310 310 311 310 310 309 308 307 306 305 304 303 303 303 304 305 306 306 307 307 308 307 307 307 306 306 306 306 306 305 305 305 305 305 305 305 305 305 305 305 305 305 305 305 305 304 304 304 303 303
246 258 268 275 278 282 286 292 299 306 310 310 308 304 300 297 296 296 297 299 301 303 305 306 307 308 308 309 309 310 310 310 310 310 310 310 310 311 311 311 310 308 307 307 305 305 304 304 304 305 306 307 308 309 309 309 309 308 308 307 307 306 306 306 305 305 305 304 304 305 305 305 305 305 305 305 305 305 305 305 305 305 305 305 304 303
277 281 284 286 289 294 300 306 310 312 312 309 306 302 299 298 298 300 302 305 306 308 308 308 309 309 310 310 311 311 311 311 311 311 311 311 311 312 312 311 310 308 307 306 306 305 305 306 307 307 309 310 310 311 311 310 310 309 308 307 307 306 305 305 304 304 304 304 304 304 304 304 304 304 305 305 305 306 306 306 306 306 306 305 305 304
293 292 293 298 304 311 315 317 317 315 312 308 304 302 301 302 304 306 308 309 310 310 310 310 309 309 310 310 311 311 312 312 312 312 312 312 313 314 314 313 311 309 309 308 308 308 309 309 310 311 312 312 313 313 312 311 310 309 308 307 306 306 305 304 304 303 303 303 303 303 304 304 304 304 305 305 306 306 306 306 306 306 306 305 305 304
301 303 309 315 319 321 321 321 319 315 311 307 305 304 305 306 309 310 310 310 310 310 310 310 310 310 310 311 311 312 313 313 314 314 313 313 314 315 316 314 313 312 312 312 312 312 313 313 314 314 314 315 315 314 313 312 311 310 309 308 307 306 305 304 304 303 303 303 303 303 303 303 304 304 305 305 306 306 306 307 306 306 306 305 305 304
313 318 322 324 325 324 323 321 318 314 310 307 306 307 308 310 311 312 311 311 310 310 311 311 312 312 312 313 313 313 314 315 315 315 314 314 315 316 317 317 316 315 315 315 315 316 316 316 316 316 316 316 316 315 314 313 311 310 309 308 307 306 305 304 304 303 303 303 302 303 303 303 304 304 305 306 306 306 306 306 306 306 305 305 304 303
323 326 327 326 325 324 322 319 315 311 309 308 309 310 311 312 312 312 311 311 311 312 313 314 314 314 314 314 314 315 315 316 316 316 315 315 316 318 320 320 320 319 318 318 317 317 317 317 316 316 316 316 316 315 314 313 312 311 310 309 308 307 306 305 304 303 303 303 303 303 303 303 304 305 305 306 306 306 306 306 306 305 305 304 303 302
326 327 326 326 325 323 319 315 311 309 309 310 312 312 313 313 313 312 312 312 313 313 314 314 315 315 314 314 314 315 316 317 317 317 317 317 318 320 322 323 323 322 321 320 319 318 318 317 317 316 316 316 315 315 314 313 312 311 310 309 308 307 306 305 304 304 304 303 303 304 304 304 304 305 305 306 306 306 306 306 306 305 305 304 303 301
329 330 330 329 327 322 317 313 311 311 312 313 313 314 314 314 313 314 314 314 314 315 315 315 315 315 315 315 315 316 317 318 319 319 320 320 321 322 324 325 325 324 322 321 319 319 318 317 316 316 316 315 315 315 314 313 312 311 311 310 309 308 307 307 306 306 305 305 305 305 305 305 305 305 305 305 306 306 306 306 306 305 305 304 303 301
338 339 337 334 328 322 317 316 315 315 315 315 315 315 315 315 315 316 316 316 317 317 317 317 317 317 317 317 317 317 319 320 321 322 323 324 324 324 325 326 326 325 323 321 319 318 317 317 316 315 315 315 315 315 314 314 313 313 312 312 311 310 310 309 309 308 308 307 307 306 306 305 305 305 305 305 305 306 306 306 306 305 305 304 302 301
350 348 344 337 330 324 321 320 319 318 317 317 317 317 318 318 318 319 319 319 320 320 320 320 320 320 320 320 320 320 321 323 324 325 327 327 326 325 325 326 326 325 323 320 319 318 317 317 316 315 315 315 315 315 315 314 314 314 314 313 313 313 312 311 311 310 309 308 307 306 305 305 304 304 304 304 304 305 305 305 305 305 304 303 302 300
359 355 347 339 332 327 324 322 321 320 320 320 320 321 321 321 321 321 322 322 322 323 323 323 322 322 322 322 322 323 324 325 326 328 330 330 328 325 324 325 325 325 323 320 318 317 317 316 315 315 315 315 315 315 315 314 314 314 314 314 314 313 312 311 311 309 308 307 306 305 304 303 303 303 303 303 304 304 305 305 305 305 304 303 302 300
4 356 347 340 334 329 326 324 323 323 323 323 323 323 323 323 323 324 324 324 325 325 325 324 324 323 323 323 324 325 327 328 329 330 331 331 329 325 323 323 324 324 323 320 318 317 316 315 314 313 313 314 314 314 314 314 314 314 314 313 313 312 311 310 309 308 306 305 304 304 303 303 302 303 303 303 304 304 304 304 304 304 304 303 301 300
4 353 344 338 333 330 327 326 326 325 325 325 325 324 324 324 325 325 325 325 326 326 326 326 325 325 325 326 327 329 330 331 331 330 330 330 329 326 323 323 324 325 324 321 319 317 315 314 313 312 312 313 313 313 312 312 312 312 312 312 311 310 309 308 307 306 306 305 304 304 303 303 303 303 303 303 304 304 304 304 304 304 303 302 301 299
359 349 341 336 333 331 330 329 328 328 327 327 326 326 326 326 326 326 326 326 327 327 327 328 328 328 329 330 330 331 331 331 331 330 329 330 329 327 324 323 324 325 325 323 320 318 316 314 313 312 312 312 312 311 311 311 311 311 310 310 310 309 308 307 307 306 306 306 305 305 304 304 304 304 304 304 304 304 304 304 304 303 302 301 300 299
353 345 339 337 335 333 333 332 331 330 329 328 328 328 328 328 328 328 328 328 329 330 330 331 332 332 333 332 331 330 330 330 330 329 329 330 330 328 325 324 324 325 326 325 323 321 319 316 314 313 312 312 311 311 310 310 309 309 309 309 309 309 308 308 307 307 306 306 305 305 304 304 304 304 304 304 304 303 303 303 303 302 301 301 299 298
350 345 341 339 338 336 335 334 333 331 331 331 330 330 330 330 330 330 330 331 332 333 333 334 335 335 335 333 331 329 329 330 330 330 330 330 331 330 327 324 324 325 327 327 326 324 322 320 317 315 313 312 311 310 310 309 309 310 310 310 309 309 308 308 307 306 306 305 304 304 303 303 303 303 303 303 303 303 302 302 301 301 300 299 299 298
349 346 344 342 340 338 336 335 334 333 333 333 333 333 333 333 333 333 334 335 335 336 336 336 336 336 335 334 331 330 330 331 331 332 331 331 332 331 329 326 325 326 328 329 329 328 326 323 320 317 315 313 312 311 311 310 310 310 310 310 310 309 308 307 306 305 304 303 303 302 302 302 302 302 302 302 302 301 301 301 301 300 300 299 298 298
352 348 346 343 341 339 338 337 336 336 336 336 335 335 335 335 336 336 337 337 337 337 336 336 336 336 336 335 334 332 331 332 332 333 333 333 333 333 331 329 328 327 327 329 330 330 328 326 322 319 317 316 315 314 313 312 312 311 311 310 309 308 307 306 305 304 303 302 302 302 302 302 302 302 302 302 301 301 301 301 301 300 300 299 299 299
353 349 346 344 342 340 340 339 339 339 339 338 337 337 337 338 339 339 339 339 339 338 337 337 336 336 337 337 337 335 333 333 334 335 334 335 335 335 333 331 330 328 327 328 329 329 329 326 324 321 320 319 318 317 315 314 313 312 311 310 309 307 306 305 304 304 303 303 303 303 303 303 303 303 303 302 302 302 302 302 302 301 300 300 301 301
352 349 346 344 344 343 343 342 342 341 340 340 339 339 340 341 341 342 341 340 340 339 338 338 337 337 338 339 338 337 335 335 336 337 337 337 337 337 335 333 331 329 327 326 326 326 327 327 325 323 322 322 321 319 317 316 315 314 313 312 310 309 308 307 306 306 306 306 306 306 306 305 305 305 305 304 304 304 304 303 302 302 301 302 302 303
352 349 347 346 346 346 345 345 344 343 342 342 342 343 343 343 344 343 342 342 341 340 339 339 339 339 340 340 340 340 339 339 339 339 338 338 339 338 336 334 332 330 328 326 325 324 325 326 326 325 325 324 323 321 320 319 318 317 316 315 314 312 312 311 311 311 311 311 311 310 310 309 308 307 307 306 305 305 304 303 302 302 302 303 304 305
352 351 350 350 349 348 347 347 346 345 345 345 345 346 346 345 345 344 343 342 342 341 341 341 341 342 343 343 343 343 343 342 341 340 339 339 339 338 336 335 333 332 330 328 327 326 325 325 326 326 326 326 325 324 323 322 321 321 320 320 319 319 319 319 319 319 319 318 317 316 314 313 311 309 308 306 305 304 303 303 302 302 303 303 304 305
354 353 353 352 352 351 350 349 348 348 348 348 348 348 347 346 345 345 344 343 343 343 343 343 343 344 345 345 345 345 344 342 341 340 339 339 339 338 337 335 334 332 331 330 328 327 327 327 327 328 328 328 328 326 325 325 325 325 325 325 325 326 326 327 328 327 326 324 321 319 317 314 312 310 308 306 304 303 302 302 302 302 303 303 304 305
357 356 356 355 354 353 353 352 351 351 351 350 349 348 347 346 346 345 344 344 344 344 345 345 345 346 346 346 346 345 344 342 341 340 339 339 338 338 337 336 334 332 331 330 329 328 327 327 328 328 329 330 329 328 327 327 328 328 329 329 330 331 332 332 332 331 329 326 323 320 317 314 312 309 307 305 304 302 302 301 301 301 302 303 304 305
0 360 359 358 357 356 355 354 353 353 352 351 350 349 347 346 346 345 345 345 345 346 346 346 346 346 346 346 346 345 344 342 341 340 339 339 339 338 337 336 334 332 331 330 329 328 327 327 328 328 329 330 330 329 328 329 329 330 331 331 332 332 332 333 332 331 329 326 323 320 317 314 311 308 305 303 302 300 300 299 299 300 300 302 303 305
4 3 1 360 358 357 355 355 354 353 352 351 350 349 348 347 346 346 346 346 346 347 347 347 347 347 347 346 345 345 344 343 341 341 340 339 339 338 337 336 334 332 331 329 328 328 327 327 327 328 329 329 329 329 329 329 330 331 332 332 332 332 331 331 331 330 328 327 324 321 318 314 310 306 303 300 298 297 297 297 297 298 299 301 303 305
5 4 1 359 358 357 356 355 354 354 353 351 350 349 348 347 347 347 347 347 347 348 348 348 348 347 347 346 345 345 344 343 342 341 341 340 339 338 337 336 334 332 330 329 328 327 327 327 327 327 328 329 329 329 329 329 330 331 332 332 332 332 331 331 331 330 329 328 327 324 321 317 312 307 303 300 298 298 299 300 300 301 302 303 304 305
5 2 0 358 357 357 356 356 355 354 353 352 351 350 349 348 348 348 348 349 349 349 349 349 349 348 347 346 345 345 344 344 343 342 341 340 338 337 336 335 333 331 330 329 328 327 326 326 326 327 328 328 329 329 329 329 330 331 332 333 333 333 333 333 332 332 331 331 330 329 326 322 317 312 308 306 305 306 308 309 310 310 310 310 309 308
3 1 359 358 358 357 357 357 356 355 354 353 352 351 350 350 350 350 351 351 351 351 351 350 349 348 347 347 346 345 345 344 343 342 341 339 338 336 335 334 332 331 329 328 327 326 326 326 326 327 327 328 329 329 329 330 330 331 332 334 335 335 335 335 335 334 333 333 333 332 331 327 324 320 317 315 316 317 319 320 320 319 319 317 315 313
2 1 360 359 359 359 358 357 356 355 354 353 353 352 352 352 352 353 353 353 354 354 353 352 351 349 348 347 346 346 345 344 343 342 340 339 337 335 334 332 331 330 329 327 326 326 325 325 326 326 327 328 329 329 330 330 331 332 333 334 336 337 338 337 337 336 335 335 336 337 337 334 331 329 327 326 326 327 329 329 328 326 324 322 319 316
3 2 2 1 0 359 358 357 356 355 354 353 353 353 353 354 354 355 355 355 355 355 354 354 352 351 350 349 347 346 345 344 342 341 339 337 336 334 332 331 330 329 328 327 326 325 325 326 326 327 328 329 330 330 331 331 331 332 333 335 337 339 340 340 339 339 339 339 341 343 344 342 341 339 337 336 335 336 337 336 334 331 328 325 322 319
4 4 4 3 1 360 358 357 355 354 353 353 353 354 354 355 357 357 358 358 357 356 356 355 354 353 351 350 348 346 344 343 341 339 338 336 334 333 332 330 329 328 327 326 326 325 325 326 327 328 329 330 330 331 331 331 332 333 334 336 338 340 341 342 342 342 343 345 347 349 350 351 351 349 348 346 344 344 343 341 339 336 332 330 328 325
6 6 5 3 2 360 358 356 355 354 353 353 354 354 356 357 358 359 0 360 359 358 357 356 355 355 353 351 348 346 344 342 340 338 336 335 333 332 331 330 329 328 327 327 326 326 327 328 329 330 330 330 330 330 330 331 332 333 335 337 339 340 342 344 345 346 348 351 353 355 357 359 0 0 359 356 354 351 348 345 343 340 338 336 334 331
7 7 5 4 2 360 358 356 355 354 354 354 355 356 357 359 360 1 1 0 360 359 357 357 356 355 353 351 348 345 343 340 339 337 335 334 333 332 331 330 330 329 328 328 328 329 330 330 331 331 331 330 330 330 330 331 332 334 336 339 341 342 344 346 348 350 353 356 359 1 3 6 8 10 9 6 3 358 354 351 349 346 343 341 338 335
8 6 5 3 1 360 358 356 355 354 355 355 356 358 359 1 1 2 1 1 360 359 358 356 355 353 351 349 347 345 342 340 339 337 336 335 334 333 332 332 331 331 331 331 331 332 331 331 331 330 330 329 329 329 330 331 334 336 339 342 344 346 348 349 351 354 357 1 4 6 8 10 13 16 17 14 10 6 2 359 357 353 349 344 340 337
8 6 4 3 1 360 359 357 356 356 356 357 359 1 2 3 3 3 2 2 0 359 358 356 354 352 349 347 345 344 342 341 339 338 337 336 336 335 335 335 334 334 334 334 334 333 332 331 330 329 329 329 330 330 332 334 337 339 342 345 348 350 352 353 354 357 1 5 8 10 11 13 15 18 20 19 16 13 9 7 4 1 356 350 344 339
7 6 4 3 1 0 359 358 358 358 359 0 2 3 4 5 5 4 3 2 1 360 358 355 353 351 348 346 345 344 342 341 341 340 340 339 339 338 338 338 337 337 337 337 336 335 334 332 331 330 330 331 332 333 335 338 341 343 346 349 351 353 355 357 358 0 3 7 10 12 13 14 16 19 20 21 20 19 16 13 11 7 3 356 349 342
7 6 4 3 2 1 1 0 0 1 2 4 5 6 7 7 6 5 4 3 2 360 358 355 353 351 349 347 345 344 344 343 343 342 342 342 342 342 341 340 339 338 338 338 338 338 338 336 334 333 334 335 337 339 341 344 346 348 350 352 354 356 357 360 2 4 5 8 11 13 14 16 17 19 21 22 23 23 21 19 15 11 6 0 352 344
7 6 4 3 3 2 2 3 4 5 6 8 8 9 8 8 7 6 5 3 2 360 358 356 353 351 349 347 346 345 345 345 345 345 344 344 344 343 343 342 341 340 339 340 341 343 344 342 340 339 339 341 342 344 346 349 351 352 353 355 356 358 359 1 3 5 7 9 12 13 15 16 17 18 19 22 24 25 24 22 18 13 7 1 355 347
7 6 5 4 3 4 5 6 7 9 10 11 11 11 11 9 8 7 6 4 2 360 358 356 354 352 350 348 347 347 347 347 346 346 346 345 345 344 344 343 343 343 344 345 347 349 351 351 348 346 346 347 348 349 351 353 354 356 356 357 358 359 0 2 5 7 9 11 13 15 16 17 17 17 17 18 21 23 24 23 19 15 9 2 355 348
8 6 5 4 4 5 7 9 10 12 12 13 13 13 13 11 10 8 6 4 2 0 358 356 354 352 351 350 349 349 349 348 348 347 346 346 346 346 347 348 349 350 350 351 353 355 359 1 359 355 353 353 353 353 353 355 356 358 359 359 0 1 2 3 6 9 11 14 16 17 17 17 16 16 15 15 17 20 22 21 19 15 11 4 357 349
8 6 6 5 6 8 10 11 13 14 14 14 15 14 14 13 11 9 7 5 3 1 359 356 355 353 352 351 351 350 350 349 349 348 348 348 349 351 352 354 355 355 356 357 357 359 3 6 8 7 2 358 357 356 355 356 358 359 0 1 2 3 3 4 7 10 13 15 17 17 17 16 15 14 13 12 14 16 19 19 17 14 11 6 359 352
Height
3012 3012 3012 3011 3011 3011 3011 3011 3011 3012 3012 3012 3012 3011 3011 3010 3010 3009 3009 3009 3008 3007 3007 3006 3005 3004 3003 3002 3000 2999 2998 2997 2996 2994 2993 2992 2991 2990 2989 2987 2986 2985 2984 2982 2981 2979 2977 2975 2973 2971 2969 2967 2965 2963 2962 2960 2958 2957 2956 2954 2953 2952 2950 2949 2947 2946 2945 2944 2942 2941 2940 2939 2937 2936 2935 2934 2933 2932 2930 2929 2928 2927 2925 2924 2923 2922
3011 3011 3010 3010 3010 3010 3010 3010 3011 3011 3011 3011 3010 3010 3009 3009 3008 3008 3007 3007 3007 3006 3005 3004 3003 3002 3001 2999 2998 2997 2996 2995 2994 2993 2992 2990 2989 2988 2987 2986 2984 2983 2981 2980 2978 2976 2974 2972 2970 2968 2966 2964 2962 2961 2959 2957 2956 2955 2953 2952 2951 2949 2948 2947 2945 2944 2942 2941 2940 2939 2937 2936 2935 2934 2933 2932 2930 2929 2928 2927 2925 2924 2923 2922 2920 2919
3009 3009 3009 3009 3009 3009 3009 3009 3009 3009 3009 3009 3009 3008 3008 3007 3007 3006 3006 3005 3005 3004 3003 3002 3001 3000 2999 2997 2996 2995 2994 2993 2992 2991 2990 2989 2987 2986 2985 2983 2982 2980 2978 2977 2975 2973 2971 2968 2967 2965 2963 2961 2960 2958 2957 2955 2954 2952 2951 2950 2948 2947 2946 2944 2943 2941 2940 2939 2937 2936 2935 2934 2933 2932 2930 2929 2928 2927 2925 2924 2923 2922 2920 2919 2917 2916
3008 3008 3008 3008 3008 3008 3008 3008 3008 3008 3008 3008 3007 3007 3006 3006 3005 3004 3004 3003 3003 3002 3001 3000 2999 2998 2997 2996 2995 2993 2992 2992 2990 2989 2988 2987 2986 2984 2983 2981 2979 2977 2976 2973 2972 2969 2967 2965 2963 2962 2960 2959 2957 2956 2954 2953 2952 2950 2949 2947 2946 2944 2943 2942 2940 2939 2938 2937 2935 2934 2933 2932 2930 2929 2928 2927 2925 2924 2923 2922 2920 2919 2918 2916 2915 2914
3007 3007 3007 3007 3007 3007 3007 3007 3007 3007 3007 3007 3006 3005 3004 3004 3003 3003 3002 3002 3001 3001 3000 2998 2997 2996 2995 2994 2993 2992 2991 2990 2989 2988 2987 2985 2983 2982 2980 2978 2976 2974 2972 2970 2968 2966 2964 2962 2961 2959 2957 2956 2955 2953 2952 2951 2949 2948 2946 2945 2943 2942 2941 2939 2938 2937 2936 2934 2933 2932 2931 2929 2928 2927 2926 2924 2923 2922 2921 2919 2918 2917 2915 2914 2912 2911
3006 3006 3006 3006 3007 3007 3007 3007 3007 3007 3006 3006 3005 3003 3002 3002 3002 3002 3001 3001 3000 2999 2998 2997 2996 2995 2994 2992 2992 2990 2989 2988 2987 2986 2984 2983 2981 2979 2977 2976 2973 2971 2969 2967 2965 2963 2962 2960 2958 2957 2955 2954 2953 2951 2950 2948 2947 2945 2944 2942 2941 2939 2938 2937 2936 2934 2933 2932 2931 2930 2928 2927 2926 2924 2923 2922 2921 2919 2918 2917 2916 2914 2913 2911 2910 2909
3006 3006 3006 3006 3006 3006 3006 3006 3006 3006 3005 3004 3003 3002 3001 3001 3001 3001 3000 2999 2999 2998 2997 2996 2994 2993 2992 2991 2990 2989 2988 2987 2985 2984 2982 2981 2979 2977 2975 2973 2971 2968 2967 2965 2963 2961 2959 2958 2956 2955 2953 2952 2951 2949 2947 2946 2944 2943 2941 2940 2938 2937 2936 2934 2933 2932 2931 2930 2928 2927 2926 2925 2923 2922 2921 2919 2918 2917 2916 2914 2913 2912 2910 2909 2907 2906
3005 3005 3005 3005 3006 3006 3006 3005 3005 3004 3003 3002 3001 3000 3000 3000 3000 3000 2999 2998 2997 2996 2995 2994 2993 2992 2991 2990 2989 2987 2986 2984 2983 2982 2980 2978 2976 2974 2972 2970 2968 2966 2964 2962 2960 2958 2957 2956 2954 2953 2952 2950 2948 2947 2945 2944 2942 2941 2939 2937 2936 2935 2933 2932 2931 2930 2928 2927 2926 2925 2923 2922 2921 2919 2918 2917 2915 2914 2913 2912 2910 2909 2907 2906 2905 2903
3005 3005 3005 3006 3005 3005 3005 3004 3004 3003 3002 3001 3000 2999 2999 2999 2999 2999 2998 2997 2996 2995 2994 2992 2992 2990 2989 2988 2987 2986 2984 2982 2981 2979 2977 2976 2974 2972 2970 2968 2965 2963 2961 2959 2958 2956 2955 2953 2952 2951 2949 2948 2946 2945 2943 2942 2940 2938 2937 2935 2934 2933 2931 2930 2929 2927 2926 2925 2924 2922 2921 2920 2918 2917 2916 2914 2913 2912 2910 2909 2907 2906 2904 2903 2902 2901
3005 3005 3005 3005 3005 3004 3004 3003 3002 3001 3000 2999 2999 2999 2999 2999 2998 2998 2997 2996 2995 2994 2993 2992 2990 2989 2987 2986 2985 2984 2982 2980 2978 2977 2975 2973 2972 2970 2968 2966 2963 2961 2959 2957 2956 2954 2953 2952 2950 2949 2947 2946 2944 2942 2941 2939 2938 2936 2935 2933 2932 2931 2929 2928 2927 2925 2924 2922 2921 2920 2918 2917 2916 2914 2913 2912 2910 2909 2907 2906 2904 2903 2902 2900 2899 2898
3005 3005 3005 3005 3004 3004 3003 3002 3001 3000 2999 2999 2999 2999 2999 2998 2997 2997 2996 2994 2993 2992 2991 2990 2989 2988 2987 2985 2983 2982 2980 2978 2976 2974 2972 2971 2969 2968 2966 2963 2961 2958 2957 2955 2954 2952 2951 2949 2948 2946 2945 2943 2942 2940 2939 2937 2936 2934 2933 2932 2930 2929 2927 2926 2925 2923 2922 2920 2919 2917 2916 2915 2913 2912 2910 2909 2907 2906 2904 2903 2902 2900 2899 2897 2896 2895
3005 3005 3004 3004 3003 3002 3002 3001 3000 2999 2999 2999 2998 2998 2998 2997 2996 2995 2994 2993 2992 2991 2990 2989 2988 2987 2986 2984 2982 2981 2979 2977 2974 2972 2970 2967 2966 2965 2963 2961 2958 2956 2954 2952 2951 2950 2948 2947 2945 2944 2942 2941 2939 2938 2937 2935 2934 2932 2931 2930 2928 2927 2925 2924 2922 2921 2919 2918 2917 2915 2914 2912 2911 2909 2908 2906 2905 2903 2902 2900 2898 2897 2896 2894 2893 2892
3004 3004 3003 3003 3002 3001 3001 3000 2999 2999 2999 2999 2998 2998 2997 2996 2995 2994 2993 2992 2992 2991 2989 2988 2986 2985 2984 2982 2981 2979 2977 2975 2973 2970 2967 2965 2963 2962 2961 2958 2956 2954 2952 2950 2948 2947 2945 2943 2942 2941 2939 2938 2937 2936 2934 2933 2932 2930 2929 2927 2926 2924 2923 2922 2920 2918 2917 2916 2914 2912 2911 2910 2908 2907 2905 2903 2902 2900 2899 2897 2896 2894 2892 2891 2889 2888
3004 3003 3002 3002 3001 3000 3000 2999 2999 2999 2999 2998 2998 2997 2996 2995 2995 2994 2993 2992 2991 2989 2988 2987 2985 2983 2982 2980 2979 2977 2975 2973 2971 2968 2965 2962 2961 2959 2958 2956 2954 2952 2949 2947 2946 2944 2942 2941 2939 2938 2937 2936 2934 2933 2932 2931 2929 2928 2926 2925 2923 2922 2921 2919 2917 2916 2914 2913 2912 2910 2908 2907 2905 2904 2902 2900 2899 2897 2896 2894 2892 2891 2889 2888 2886 2885
3002 3002 3001 3001 3000 3000 2999 2999 2999 2999 2999 2998 2997 2997 2996 2995 2994 2993 2992 2991 2989 2988 2987 2985 2983 2981 2979 2978 2976 2975 2973 2972 2969 2967 2964 2961 2958 2957 2956 2954 2952 2950 2947 2946 2944 2942 2940 2938 2937 2936 2934 2933 2932 2931 2929 2928 2927 2925 2924 2922 2921 2919 2918 2916 2915 2913 2912 2910 2909 2907 2906 2904 2902 2901 2899 2897 2896 2894 2892 2891 2889 2888 2886 2884 2883 2881
3001 3001 3000 3000 2999 2999 2999 2999 2999 2999 2998 2998 2997 2996 2995 2994 2993 2992 2991 2990 2988 2987 2985 2984 2982 2981 2978 2976 2974 2972 2971 2969 2967 2965 2962 2959 2957 2955 2953 2952 2950 2948 2946 2944 2942 2940 2938 2937 2935 2933 2932 2931 2930 2928 2927 2925 2924 2922 2921 2920 2918 2917 2915 2914 2912 2911 2909 2907 2906 2904 2902 2901 2899 2897 2896 2894 2892 2891 2889 2887 2886 2884 2883 2881 2879 2878
3000 2999 2999 2999 2999 2999 2999 2999 2999 2998 2998 2997 2996 2995 2994 2993 2992 2991 2990 2988 2987 2985 2984 2982 2981 2979 2977 2975 2972 2970 2969 2967 2965 2963 2961 2958 2955 2953 2952 2950 2948 2947 2945 2942 2941 2939 2937 2935 2933 2932 2930 2929 2927 2926 2924 2923 2922 2920 2918 2917 2915 2914 2912 2911 2909 2907 2906 2904 2902 2901 2899 2897 2895 2894 2892 2891 2889 2887 2886 2884 2882 2881 2879 2877 2876 2875
2999 2998 2998 2999 2999 2999 2999 2999 2998 2998 2997 2997 2996 2995 2993 2992 2991 2990 2988 2987 2985 2984 2982 2980 2978 2977 2975 2972 2970 2967 2966 2964 2962 2961 2959 2957 2954 2952 2950 2949 2947 2946 2944 2942 2939 2937 2935 2933 2932 2930 2928 2927 2925 2924 2922 2920 2919 2917 2916 2914 2912 2911 2909 2907 2906 2904 2902 2901 2899 2897 2895 2894 2892 2890 2889 2887 2885 2884 2882 2881 2879 2877 2876 2874 2872 2871
2998 2998 2999 2999 2999 2999 2999 2998 2998 2997 2997 2996 2995 2993 2992 2991 2990 2988 2987 2985 2983 2982 2980 2978 2976 2973 2972 2970 2967 2965 2963 2962 2960 2958 2957 2955 2952 2950 2949 2947 2946 2945 2943 2941 2938 2936 2934 2932 2930 2928 2926 2924 2923 2921 2919 2917 2916 2914 2912 2911 2909 2907 2906 2904 2902 2901 2899 2897 2896 2894 2892 2890 2889 2887 2885 2883 2882 2880 2878 2877 2875 2873 2872 2870 2869 2867
2998 2998 2999 2999 2999 2999 2998 2998 2997 2997 2996 2995 2994 2992 2991 2990 2988 2987 2985 2983 2982 2980 2977 2976 2973 2971 2969 2967 2965 2963 2961 2959 2957 2956 2955 2953 2951 2949 2947 2946 2945 2944 2942 2940 2937 2935 2933 2931 2928 2926 2924 2922 2921 2919 2917 2915 2913 2911 2910 2908 2906 2904 2903 2901 2899 2897 2896 2894 2892 2891 2889 2887 2885 2883 2882 2880 2878 2876 2874 2873 2871 2869 2868 2866 2865 2863
2999 2999 2999 2999 2999 2998 2998 2997 2997 2996 2995 2994 2993 2992 2990 2989 2987 2985 2984 2982 2980 2978 2976 2974 2971 2969 2967 2965 2962 2961 2959 2957 2955 2953 2952 2952 2950 2948 2946 2945 2944 2942 2941 2939 2937 2934 2932 2930 2927 2925 2923 2921 2919 2917 2915 2912 2911 2909 2907 2905 2904 2902 2900 2898 2897 2895 2893 2891 2889 2887 2886 2884 2882 2880 2878 2876 2874 2872 2871 2869 2867 2865 2864 2862 2861 2859
2999 2999 2999 2999 2999 2998 2997 2997 2996 2995 2994 2993 2992 2991 2989 2988 2986 2984 2982 2981 2979 2977 2975 2972 2970 2967 2964 2962 2960 2958 2957 2955 2953 2952 2951 2950 2949 2947 2945 2943 2942 2941 2940 2938 2936 2934 2931 2929 2926 2924 2922 2920 2917 2915 2913 2911 2908 2907 2905 2903 2901 2899 2898 2896 2894 2892 2890 2888 2886 2884 2882 2880 2878 2876 2874 2872 2870 2868 2866 2865 2863 2861 2859 2858 2856 2855
2999 2999 2999 2999 2998 2998 2997 2997 2996 2995 2993 2992 2991 2990 2988 2987 2985 2983 2981 2979 2977 2975 2973 2971 2968 2965 2962 2960 2958 2956 2955 2953 2952 2950 2949 2948 2947 2946 2944 2942 2941 2939 2938 2937 2935 2933 2931 2928 2926 2923 2921 2918 2916 2914 2911 2909 2907 2905 2903 2901 2899 2897 2895 2893 2891 2889 2887 2885 2882 2880 2878 2876 2874 2872 2869 2867 2866 2864 2862 2860 2858 2857 2855 2853 2852 2851
3000 3000 2999 2999 2998 2997 2997 2996 2995 2994 2992 2991 2990 2988 2987 2985 2983 2981 2979 2977 2976 2973 2971 2969 2967 2964 2961 2959 2957 2955 2953 2952 2951 2949 2948 2947 2946 2944 2942 2940 2939 2938 2937 2935 2933 2931 2929 2927 2925 2922 2919 2917 2915 2912 2910 2907 2905 2903 2901 2899 2897 2894 2892 2890 2888 2886 2883 2881 2879 2876 2874 2872 2870 2867 2865 2863 2862 2860 2858 2856 2854 2853 2851 2849 2848 2847
3000 3000 2999 2999 2998 2997 2996 2995 2994 2993 2992 2990 2989 2987 2985 2983 2982 2979 2977 2975 2973 2971 2969 2967 2965 2962 2961 2958 2956 2954 2952 2951 2950 2948 2947 2945 2944 2942 2941 2938 2937 2935 2935 2933 2932 2930 2928 2926 2923 2921 2918 2916 2914 2911 2909 2906 2903 2901 2899 2896 2894 2892 2889 2887 2884 2882 2880 2877 2875 2872 2870 2868 2866 2864 2862 2860 2858 2856 2854 2852 2851 2849 2847 2846 2844 2843
3000 3000 2999 2998 2998 2997 2996 2995 2994 2992 2991 2989 2987 2986 2984 2982 2980 2977 2975 2973 2971 2968 2967 2965 2963 2962 2960 2958 2956 2953 2952 2950 2949 2947 2945 2943 2942 2941 2939 2937 2934 2933 2932 2931 2930 2928 2926 2923 2922 2919 2917 2915 2912 2910 2907 2904 2902 2899 2896 2894 2891 2888 2886 2883 2881 2878 2876 2874 2871 2869 2867 2864 2862 2860 2858 2856 2854 2853 2851 2849 2847 2846 2844 2843 2841 2840
3000 3000 2999 2998 2997 2997 2995 2994 2993 2991 2990 2988 2986 2984 2982 2981 2978 2976 2974 2971 2969 2967 2965 2963 2962 2960 2959 2957 2955 2953 2950 2949 2947 2946 2944 2942 2940 2939 2937 2934 2932 2930 2929 2928 2927 2926 2923 2921 2919 2917 2915 2913 2911 2908 2905 2902 2900 2897 2894 2891 2888 2885 2882 2880 2877 2875 2872 2870 2867 2865 2863 2861 2859 2857 2855 2853 2851 2849 2847 2846 2844 2843 2841 2840 2839 2837
3000 3000 2999 2998 2997 2996 2995 2993 2992 2990 2989 2987 2985 2983 2981 2979 2977 2975 2972 2970 2968 2966 2963 2962 2960 2958 2957 2956 2954 2952 2949 2947 2946 2944 2942 2940 2938 2937 2934 2932 2930 2927 2926 2925 2924 2923 2922 2919 2917 2915 2913 2911 2908 2906 2903 2900 2897 2895 2892 2888 2885 2882 2879 2876 2874 2871 2869 2866 2864 2862 2859 2857 2855 2853 2852 2850 2848 2846 2844 2843 2842 2840 2839 2837 2836 2835
3000 3000 2999 2998 2997 2996 2994 2992 2991 2989 2987 2986 2984 2982 2980 2977 2975 2973 2971 2969 2967 2964 2962 2960 2958 2957 2955 2954 2952 2951 2948 2946 2944 2942 2940 2938 2937 2935 2932 2930 2927 2925 2923 2921 2921 2920 2920 2917 2915 2912 2910 2908 2906 2903 2900 2897 2895 2892 2889 2886 2882 2879 2876 2873 2870 2868 2865 2863 2861 2859 2857 2854 2852 2851 2849 2847 2845 2843 2842 2840 2839 2838 2837 2835 2834 2833
3001 3000 2999 2997 2996 2995 2993 2992 2990 2988 2987 2985 2982 2980 2978 2976 2974 2972 2969 2967 2965 2963 2961 2959 2957 2955 2953 2952 2950 2948 2947 2944 2942 2940 2938 2936 2934 2932 2930 2928 2926 2923 2921 2918 2916 2916 2916 2915 2913 2911 2908 2906 2903 2900 2897 2894 2891 2888 2886 2882 2879 2876 2873 2870 2867 2865 2863 2860 2858 2856 2854 2852 2850 2848 2847 2845 2843 2841 2840 2838 2837 2836 2834 2833 2832 2831
3001 3000 2998 2997 2996 2994 2992 2991 2989 2987 2985 2983 2981 2978 2976 2974 2972 2970 2968 2966 2964 2962 2960 2958 2956 2954 2952 2950 2947 2946 2944 2942 2940 2938 2936 2934 2932 2931 2928 2926 2924 2921 2919 2916 2913 2911 2910 2910 2910 2908 2906 2903 2900 2897 2894 2891 2888 2885 2882 2879 2876 2873 2870 2868 2865 2863 2861 2858 2857 2854 2852 2851 2848 2847 2845 2843 2841 2840 2838 2837 2835 2834 2833 2832 2831 2829
3000 2999 2998 2997 2995 2993 2991 2989 2987 2985 2983 2981 2979 2977 2975 2973 2971 2969 2967 2965 2963 2961 2958 2957 2954 2952 2951 2948 2946 2944 2942 2940 2938 2937 2935 2933 2931 2929 2927 2924 2922 2919 2917 2914 2912 2908 2906 2904 2904 2904 2902 2900 2897 2893 2891 2888 2885 2882 2879 2877 2874 2871 2868 2866 2863 2861 2859 2857 2855 2853 2851 2849 2847 2845 2843 2841 2840 2838 2837 2835 2834 2832 2831 2830 2829 2828
3000 2999 2997 2995 2993 2992 2990 2988 2986 2984 2982 2980 2978 2976 2974 2972 2970 2968 2966 2964 2962 2959 2957 2955 2953 2951 2949 2947 2946 2943 2941 2939 2937 2935 2933 2931 2929 2927 2925 2922 2920 2917 2915 2912 2910 2907 2904 2902 2900 2898 2898 2896 2893 2890 2887 2885 2882 2880 2877 2874 2872 2869 2867 2864 2862 2860 2858 2856 2854 2852 2850 2847 2846 2843 2842 2840 2838 2837 2835 2834 2832 2831 2830 2828 2827 2826
2999 2997 2996 2994 2992 2990 2989 2987 2985 2983 2981 2979 2977 2975 2973 2971 2969 2967 2965 2962 2960 2958 2956 2954 2952 2950 2948 2947 2945 2943 2941 2938 2936 2934 2932 2929 2927 2925 2923 2921 2918 2915 2912 2910 2908 2905 2903 2900 2898 2896 2893 2892 2890 2888 2885 2882 2880 2877 2874 2872 2869 2867 2865 2863 2861 2859 2857 2854 2852 2850 2848 2846 2844 2842 2840 2838 2837 2835 2834 2832 2831 2829 2828 2827 2825 2823
2998 2996 2995 2993 2992 2990 2989 2987 2986 2984 2982 2980 2977 2975 2973 2971 2969 2966 2964 2962 2959 2957 2955 2953 2951 2949 2947 2945 2944 2942 2940 2938 2935 2933 2930 2928 2926 2923 2921 2919 2916 2913 2910 2908 2905 2903 2900 2898 2896 2893 2891 2889 2887 2885 2882 2880 2877 2875 2872 2869 2867 2865 2862 2860 2858 2857 2854 2852 2850 2848 2846 2844 2842 2840 2838 2837 2835 2834 2832 2831 2829 2828 2826 2825 2823 2821
2997 2996 2995 2994 2992 2991 2990 2988 2986 2984 2982 2980 2978 2976 2973 2971 2968 2966 2963 2961 2959 2957 2954 2952 2950 2948 2947 2945 2943 2941 2939 2937 2935 2932 2929 2927 2924 2922 2920 2917 2914 2912 2908 2906 2903 2900 2897 2895 2893 2891 2888 2886 2884 2882 2880 2878 2876 2873 2870 2867 2865 2862 2860 2858 2856 2854 2852 2850 2847 2846 2844 2842 2840 2838 2836 2835 2833 2832 2831 2829 2827 2826 2824 2823 2821 2820
2998 2997 2996 2994 2993 2992 2990 2988 2986 2984 2982 2980 2978 2975 2973 2970 2968 2966 2963 2961 2959 2957 2954 2952 2950 2948 2946 2944 2942 2940 2938 2936 2933 2931 2928 2926 2923 2921 2918 2916 2913 2910 2907 2904 2900 2897 2895 2892 2890 2887 2886 2883 2881 2879 2877 2875 2873 2871 2868 2866 2863 2860 2857 2855 2853 2851 2849 2847 2845 2843 2841 2839 2837 2836 2834 2832 2831 2830 2828 2827 2825 2824 2822 2821 2820 2818
2998 2997 2996 2994 2993 2991 2989 2987 2985 2983 2981 2979 2977 2974 2972 2970 2967 2965 2963 2961 2958 2956 2954 2952 2950 2947 2945 2943 2941 2939 2937 2935 2932 2930 2927 2925 2922 2920 2917 2914 2912 2908 2905 2902 2898 2895 2892 2889 2887 2885 2883 2881 2879 2877 2874 2872 2870 2868 2866 2864 2861 2858 2855 2853 2850 2848 2846 2844 2842 2841 2839 2837 2835 2833 2831 2830 2828 2827 2826 2825 2823 2822 2821 2819 2818 2817
2999 2997 2996 2994 2992 2990 2987 2985 2983 2982 2980 2978 2976 2973 2971 2969 2967 2964 2962 2960 2958 2956 2954 2952 2950 2947 2945 2943 2941 2938 2936 2934 2931 2929 2926 2924 2921 2918 2916 2913 2910 2907 2904 2900 2897 2893 2890 2887 2885 2882 2880 2878 2877 2874 2872 2869 2867 2865 2862 2861 2859 2856 2854 2851 2848 2846 2844 2842 2840 2838 2836 2834 2832 2830 2828 2827 2826 2825 2824 2823 2822 2821 2819 2818 2817 2816
2998 2997 2995 2993 2991 2988 2986 2984 2982 2981 2979 2977 2975 2973 2971 2969 2967 2964 2962 2960 2958 2956 2954 2952 2950 2948 2945 2943 2940 2938 2936 2933 2931 2928 2926 2923 2920 2917 2914 2912 2908 2905 2902 2899 2896 2892 2889 2886 2883 2881 2879 2877 2874 2872 2870 2867 2864 2862 2860 2858 2856 2853 2851 2849 2846 2844 2842 2840 2838 2836 2834 2832 2831 2829 2827 2826 2824 2823 2822 2821 2820 2819 2818 2817 2816 2815
2998 2996 2994 2992 2990 2988 2986 2984 2982 2980 2978 2976 2974 2972 2970 2968 2967 2965 2963 2961 2959 2957 2955 2953 2951 2948 2946 2943 2941 2938 2936 2933 2930 2927 2925 2922 2919 2916 2913 2910 2907 2904 2901 2897 2894 2891 2888 2885 2882 2880 2877 2875 2872 2870 2868 2865 2862 2860 2857 2855 2853 2851 2849 2847 2844 2842 2840 2838 2836 2834 2833 2831 2829 2828 2827 2825 2824 2823 2822 2821 2819 2818 2817 2816 2815 2814
2998 2996 2994 2992 2990 2987 2986 2983 2981 2979 2977 2975 2973 2971 2969 2968 2966 2964 2962 2961 2959 2957 2955 2953 2951 2949 2947 2944 2942 2939 2936 2933 2930 2927 2925 2922 2919 2916 2912 2909 2906 2902 2899 2896 2893 2890 2887 2884 2881 2878 2876 2873 2871 2868 2866 2863 2861 2858 2856 2853 2851 2849 2847 2845 2843 2841 2838 2837 2835 2833 2832 2830 2829 2827 2826 2825 2824 2823 2822 2820 2819 2818 2817 2815 2814 2813
2997 2995 2993 2992 2990 2987 2986 2983 2981 2979 2977 2975 2973 2971 2969 2967 2965 2963 2962 2960 2958 2956 2955 2953 2951 2949 2947 2945 2942 2940 2937 2934 2931 2927 2924 2921 2918 2915 2911 2908 2904 2901 2898 2895 2892 2889 2886 2883 2881 2877 2874 2872 2869 2867 2864 2861 2859 2856 2854 2852 2849 2847 2844 2842 2841 2839 2837 2836 2834 2832 2831 2830 2828 2827 2826 2825 2824 2822 2821 2820 2818 2817 2816 2814 2813 2812
2997 2995 2993 2992 2990 2988 2986 2983 2981 2979 2977 2975 2973 2971 2969 2967 2965 2963 2961 2959 2957 2956 2954 2952 2950 2948 2946 2944 2942 2940 2937 2934 2931 2927 2924 2920 2917 2913 2910 2907 2903 2900 2897 2893 2891 2888 2885 2882 2879 2877 2873 2870 2867 2864 2862 2859 2857 2855 2852 2850 2847 2845 2843 2841 2839 2837 2836 2835 2833 2832 2831 2829 2828 2827 2826 2825 2823 2822 2821 2819 2818 2817 2815 2814 2812 2811
2997 2996 2994 2992 2990 2988 2986 2983 2981 2979 2977 2975 2972 2971 2969 2967 2965 2963 2961 2959 2957 2955 2952 2951 2948 2947 2945 2943 2941 2938 2936 2933 2930 2927 2923 2920 2916 2912 2909 2906 2902 2899 2896 2893 2890 2887 2884 2881 2878 2875 2872 2869 2866 2863 2860 2857 2855 2853 2851 2848 2846 2844 2842 2840 2838 2837 2835 2834 2833 2832 2830 2829 2828 2827 2826 2824 2823 2821 2820 2818 2817 2815 2814 2813 2812 2810
2997 2996 2994 2992 2990 2987 2985 2983 2981 2979 2977 2974 2972 2971 2969 2967 2965 2962 2961 2958 2957 2954 2952 2950 2947 2945 2943 2941 2938 2936 2934 2931 2928 2926 2922 2919 2915 2912 2908 2905 2902 2898 2895 2892 2889 2886 2883 2879 2876 2873 2870 2867 2864 2861 2858 2856 2853 2851 2849 2847 2845 2843 2841 2840 2838 2836 2835 2833 2832 2831 2830 2829 2827 2826 2825 2823 2822 2820 2818 2817 2816 2814 2813 2812 2811 2810
2997 2996 2993 2992 2989 2987 2985 2983 2981 2979 2977 2974 2972 2970 2968 2967 2965 2962 2961 2958 2956 2954 2952 2949 2947 2944 2942 2939 2936 2933 2931 2928 2926 2923 2920 2917 2914 2911 2907 2904 2901 2898 2895 2892 2888 2885 2881 2877 2874 2870 2867 2864 2862 2859 2857 2854 2852 2850 2848 2846 2844 2842 2841 2839 2837 2836 2835 2833 2832 2831 2829 2828 2827 2825 2824 2822 2821 2819 2817 2816 2815 2813 2812 2811 2810 2809
2997 2995 2993 2991 2989 2987 2985 2983 2981 2979 2977 2975 2972 2970 2968 2966 2964 2962 2960 2958 2956 2954 2951 2949 2946 2943 2941 2937 2935 2932 2929 2926 2923 2920 2917 2915 2912 2909 2907 2903 2900 2897 2893 2890 2887 2884 2880 2876 2872 2868 2865 2862 2860 2857 2855 2853 2852 2849 2847 2846 2844 2842 2840 2839 2837 2836 2834 2833 2832 2830 2829 2827 2826 2824 2822 2821 2820 2818 2817 2815 2814 2813 2812 2811 2809 2808
2997 2995 2993 2991 2989 2987 2985 2983 2981 2979 2977 2975 2972 2971 2968 2966 2964 2962 2960 2958 2955 2953 2951 2948 2945 2942 2940 2937 2933 2930 2927 2924 2921 2918 2915 2913 2910 2907 2904 2902 2898 2895 2892 2888 2885 2882 2879 2875 2870 2866 2863 2861 2858 2856 2854 2853 2851 2849 2847 2846 2844 2842 2840 2838 2837 2836 2834 2833 2831 2830 2828 2827 2825 2823 2822 2820 2819 2817 2816 2814 2813 2812 2811 2810 2809 2807
2997 2995 2993 2991 2989 2987 2985 2982 2981 2978 2977 2974 2972 2971 2969 2967 2965 2962 2960 2958 2955 2952 2950 2947 2944 2941 2938 2935 2932 2929 2926 2923 2920 2917 2914 2911 2908 2905 2902 2898 2895 2892 2888 2885 2882 2880 2877 2875 2870 2866 2862 2860 2858 2856 2854 2852 2851 2849 2848 2846 2844 2842 2840 2838 2837 2835 2834 2832 2831 2829 2828 2827 2825 2823 2822 2820 2818 2817 2816 2814 2813 2812 2810 2809 2808 2807
2997 2995 2993 2991 2989 2987 2984 2982 2980 2978 2976 2974 2972 2971 2969 2967 2965 2962 2960 2958 2955 2952 2950 2947 2943 2940 2937 2934 2931 2928 2925 2922 2919 2916 2912 2909 2906 2902 2899 2895 2891 2888 2884 2881 2879 2876 2874 2872 2870 2867 2864 2861 2859 2857 2855 2853 2851 2849 2848 2846 2844 2842 2840 2838 2837 2835 2833 2832 2831 2829 2828 2826 2825 2823 2821 2819 2818 2816 2815 2814 2812 2811 2810 2809 2807 2806